Home   Weather   Utrecht   Past weeks

Flag for Netherlands Past Weather in Utrecht, Netherlands — Yesterday and Last 2 Weeks

Now
45 °F

Scattered showers. Passing clouds.


Feels Like: 39 °F
Forecast: 34 / 51 °F
Wind: 10 mph from West

Location: Amsterdam Schiphol Airport

Current Time: Apr 26, 2017 at 10:09:56 am

Latest Report: Apr 26, 2017 at 9:25 am


Visibility: 6 mi

Pressure: 29.89 "Hg

Humidity: 71%

Dew Point: 36 °F

Location of UtrechtLocation

Past Weather in Utrecht — Graph

°F

Utrecht Temperature Yesterday

Maximum temperature yesterday: 48 °F (at 12:25 pm)
Minimum temperature yesterday: 37 °F (at 11:25 pm)
Average temperature yesterday: 43 °F

High & Low Weather Summary for the Past Weeks

 TemperatureHumidityPressure
High55 °F (Apr 11, 1:55 pm)100% (Apr 13, 2:25 am)30.63 "Hg (Apr 13, 2:25 am)
Low32 °F (Apr 20, 3:55 am)39% (Apr 19, 9:55 am)29.68 "Hg (Apr 25, 2:25 am)
Average47 °F74%30.16 "Hg
* Reported Apr 11 8:25 am — Apr 26 8:55 am, Utrecht, Weather by CustomWeather, © 2017

Note: Actual official high and low records may vary slightly from our data, if they occured in-between our weather recording intervals... More about our weather records

Advertising

Utrecht Weather History for the Previous 24 Hours

Scroll right to see more
 ConditionsComfort  
Time TempWeatherWind HumidityBarometerVisibility
8:55 am
Wed, Apr 26
45 °FPassing clouds.8 mph71%29.89 "HgN/A
8:25 am43 °FSprinkles. Scattered clouds.8 mph81%29.86 "Hg6 mi
7:55 am43 °FSprinkles. Passing clouds.1 mph71%29.86 "HgN/A
7:25 am37 °FSprinkles. Passing clouds.8 mph87%29.86 "HgN/A
6:55 am37 °FSprinkles. Scattered clouds.10 mph81%29.86 "HgN/A
6:25 am32 °FSprinkles. Passing clouds.1 mph100%29.86 "HgN/A
5:55 am32 °FScattered showers. Fog.2 mph100%29.83 "HgN/A
5:25 am32 °FFog.2 mph93%29.83 "HgN/A
4:55 am34 °FFog.2 mph100%29.83 "HgN/A
4:25 am36 °FFog.2 mph100%29.83 "HgN/A
3:55 am34 °FFog.3 mph100%29.83 "HgN/A
3:25 am36 °FPassing clouds.6 mph93%29.83 "HgN/A
2:55 am37 °FPassing clouds.5 mph93%29.83 "HgN/A
2:25 am37 °FPassing clouds.3 mph93%29.83 "HgN/A
1:55 am39 °FSprinkles. Passing clouds.3 mph93%29.83 "HgN/A
1:25 am41 °FScattered showers. Passing clouds.3 mph87%29.83 "HgN/A
12:55 am41 °FSprinkles. Passing clouds.3 mph87%29.80 "HgN/A
12:25 am39 °FSprinkles. Passing clouds.2 mph87%29.80 "HgN/A
11:55 pm
Tue, Apr 25
39 °FSprinkles. Passing clouds.8 mph87%29.80 "HgN/A
11:25 pm37 °FScattered showers. Passing clouds.7 mph93%29.83 "HgN/A
10:55 pm41 °FPassing clouds.7 mph81%29.83 "HgN/A
10:25 pm43 °FPassing clouds.9 mph76%29.83 "HgN/A
9:55 pm41 °FPassing clouds.9 mph81%29.83 "HgN/A
8:55 pm43 °FScattered showers. Passing clouds.13 mph76%29.83 "HgN/A
8:25 pm43 °FPassing clouds.12 mph76%29.83 "HgN/A
7:55 pm45 °FPassing clouds.18 mph71%29.83 "HgN/A
7:25 pm45 °FPassing clouds.18 mph66%29.83 "HgN/A
6:55 pm45 °FPassing clouds.16 mph71%29.83 "HgN/A
6:25 pm45 °FScattered showers. Passing clouds.16 mph71%29.83 "HgN/A
5:55 pm45 °FScattered clouds.13 mph81%29.83 "HgN/A
5:25 pm45 °FScattered showers. Passing clouds.9 mph81%29.83 "HgN/A
4:55 pm41 °FSprinkles. Scattered clouds.16 mph87%29.83 "Hg6 mi
4:25 pm43 °FSprinkles. Scattered clouds.23 mph76%29.83 "HgN/A
3:55 pm46 °FScattered showers. Scattered clouds.22 mph62%29.83 "HgN/A
3:25 pm48 °FScattered showers. Scattered clouds.20 mph46%29.83 "HgN/A
2:55 pm46 °FPassing clouds.20 mph46%29.83 "HgN/A
2:25 pm46 °FScattered clouds.20 mph57%29.83 "HgN/A
1:55 pm48 °FScattered clouds.16 mph62%29.80 "HgN/A
1:25 pm45 °FScattered clouds.18 mph66%29.80 "HgN/A
12:55 pm45 °FPassing clouds.20 mph71%29.80 "HgN/A
12:25 pm48 °FSprinkles. Scattered clouds.18 mph62%29.80 "Hg6 mi
11:55 am46 °FScattered showers. Passing clouds.20 mph66%29.77 "HgN/A
11:25 am45 °FSprinkles. Scattered clouds.20 mph66%29.77 "HgN/A
10:55 am45 °FScattered clouds.18 mph76%29.74 "HgN/A
10:25 am43 °FScattered clouds.22 mph76%29.74 "HgN/A
Weather by CustomWeather, © 2017

See weather overviewHow to use our weather pages